Location: Mahannah Oil Field
(37.4664°N, 96.6003°W)
Time: 07:10:16
(UTC+00:00)

Tiros 1 despin weight - Pass Details

Date: 22 January 2021
Orbit: 593 x 642 km, 48.2° (Epoch: 05 March)

Event Time Altitude Azimuth Distance (km) Brightness Sun altitude
Rises 00:14:47 0° 292° (WNW) 2,860 ? -7.4°
Reaches altitude 10° 00:17:36 10° 309° (NW) 1,948 ? -8.0°
Maximum altitude 00:20:56 20° 357° (N) 1,393 ? -8.6°
Drops below altitude 10° 00:24:15 10° 46° (NE) 1,932 ? -9.2°
Enters shadow 00:24:23 10° 47° (NE) 1,970 ? -9.2°
